Back to catalog

HULIANWANG DIGUI-30

AliveCommunicationsPO
NORAD 64283·PAYLOAD·🇨🇳 China

Launched Jun 5, 2025 from Taiyuan Satellite Launch Center

Loading…

Next Passes (next 24 hours)

TLE

FreshSource: Space-Track

Epoch: Sep 14, 2026, 14:49 UTC

1 64283U 25121A   26257.61737601  .00000038  00000-0  55172-4 0  9992
2 64283  86.5048 343.4009 0001607 108.1485 251.9824 13.24410466 61997

Track HULIANWANG DIGUI-30 in real time with AllMySat

Download on the App Store